Tracking 27380 objects as of 5-Jun-2023
HD Live streaming from Space Station
objects crossing your sky now

STARLINK-1450

Track STARLINK-1450 now!
10-day predictions
STARLINK-1450 is classified as:


NORAD ID: 45667
Int'l Code: 2020-035L
Perigee: 553.7 km
Apogee: 555.0 km
Inclination: 53.1 °
Period: 95.6 minutes
Semi major axis: 6925 km
RCS: Unknown
Launch date: June 4, 2020
Source: United States (US)
Launch site: AIR FORCE EASTERN TEST RANGE (AFETR)
Your satellite tracking list
Your tracking list is empty




NASA's NSSDC Master Catalog

Two Line Element Set (TLE):
1 45667U 20035L   23155.69656490  .00008958  00000-0  61940-3 0  9992
2 45667  53.0545 276.1902 0000981 100.9864 259.1236 15.06405086166641
Source of the keplerian elements: AFSPC